This is the latest recevied weather packets stored in our database for station/object K4KJQ-13. If no packets are shown the sender has not sent any weather packets the latest 1 day(s).
| Time | Temp. | Humidity | Pressure | Rain* | Wind** | Luminosity | Snow |
|---|---|---|---|---|---|---|---|
| 1777974371 | 16.67° C | 100% | 0 hPa | 0 mm | 3.13 m/s, 306° | - | - |
| 1777974071 | 16.11° C | 100% | 0 hPa | 0 mm | 3.13 m/s, 299° | - | - |
| 1777973771 | 17.22° C | 100% | 0 hPa | 0 mm | 2.68 m/s, 310° | - | - |
| 1777973471 | 17.22° C | 100% | 0 hPa | 0 mm | 2.24 m/s, 288° | - | - |
| 1777973171 | 17.22° C | 100% | 0 hPa | 0 mm | 1.79 m/s, 313° | - | - |
| 1777972871 | 17.22° C | 100% | 0 hPa | 0 mm | 2.24 m/s, 299° | - | - |
| 1777972571 | 17.22° C | 100% | 0 hPa | 0 mm | 3.58 m/s, 292° | - | - |
| 1777972271 | 17.22° C | 100% | 0 hPa | 0 mm | 1.79 m/s, 292° | - | - |
| 1777971971 | 17.22° C | 100% | 0 hPa | 0 mm | 1.34 m/s, 293° | - | - |
| 1777971672 | 17.22° C | 100% | 0 hPa | 0 mm | 2.68 m/s, 303° | - | - |
| 1777971371 | 17.22° C | 100% | 0 hPa | 0 mm | 1.79 m/s, 309° | - | - |
| 1777971071 | 17.22° C | 100% | 0 hPa | 0 mm | 2.68 m/s, 298° | - | - |
| 1777970772 | 17.22° C | 100% | 0 hPa | 0 mm | 3.58 m/s, 268° | - | - |
| 1777970471 | 17.22° C | 100% | 0 hPa | 0 mm | 1.79 m/s, 282° | - | - |
| 1777970171 | 17.22° C | 100% | 0 hPa | 0 mm | 1.34 m/s, 289° | - | - |
| 1777969872 | 17.22° C | 100% | 0 hPa | 0 mm | 2.24 m/s, 306° | - | - |
| 1777969572 | 17.22° C | 100% | 0 hPa | 0 mm | 2.24 m/s, 299° | - | - |
| 1777969271 | 17.78° C | 100% | 0 hPa | 0 mm | 1.34 m/s, 296° | - | - |
| 1777968971 | 17.78° C | 100% | 0 hPa | 0 mm | 2.24 m/s, 288° | - | - |
| 1777968671 | 17.78° C | 100% | 0 hPa | 0 mm | 2.24 m/s, 323° | - | - |
| 1777968371 | 17.78° C | 100% | 0 hPa | 0 mm | 1.34 m/s, 300° | - | - |
| 1777968071 | 17.78° C | 100% | 0 hPa | 0 mm | 6.26 m/s, 299° | - | - |
| 1777967771 | 18.33° C | 100% | 0 hPa | 0 mm | 3.13 m/s, 288° | - | - |
| 1777967471 | 17.78° C | 100% | 0 hPa | 0 mm | 4.02 m/s, 277° | - | - |
| 1777967171 | 17.78° C | 100% | 0 hPa | 0 mm | 2.24 m/s, 315° | - | - |
* Rain latest hour (hover to see other rain measurements)
** Current wind speed in m/s (hover to see current wind gust speed)